User: anonymous   Login
Location: Unspecified
(0.0000°N, 0.0000°E)
Time: 19:57:43
(UTC+00:00)
Language:

Kosmos-2100 - Orbit

View from above orbital plane
View from above orbital plane
View from above satellite
View from above satellite

Ground track
Ground track

The orbit data is extracted from the following two-line orbital elements,

1 20804U 90083A   17144.92629366 +.00000011 +00000-0 -48655-5 0  9990
2 20804 082.9392 098.5693 0037670 140.7541 278.5198 13.74302143338534
Epoch (UTC): 24 May 2017 22:13:51
Eccentricity: 0.0037670
inclination: 82.9392°
perigee height: 956 km
apogee height: 1012 km
right ascension of ascending node: 98.5693°
argument of perigee: 140.7541°
revolutions per day: 13.74302143
mean anomaly at epoch: 278.5198°
orbit number at epoch: 33853

The dashed part of the orbit path shows where the satellite is in the earth's shadow,  

DLR